Location: Nairn
(57.5833°N, 3.8667°W)
Time: 03:01:54
(UTC+00:00)

Vanguard 1 Rocket - Pass Details

Date: 26 November 2020
Orbit: 655 x 4221 km, 34.3° (Epoch: 20 January)

Event Time Altitude Azimuth Distance (km) Brightness Sun altitude
Exits shadow 06:36:20 - 258° (WSW) 7,174 11.4 -13.3°
Reaches altitude 10° 06:40:57 10° 250° (WSW) 6,189 11.2 -12.7°
Maximum altitude 06:52:24 21° 211° (SSW) 4,124 10.6 -11.3°
Drops below altitude 10° 07:00:11 10° 167° (SSE) 4,034 11.2 -10.3°
Sets 07:03:44 0° 151° (SSE) 4,553 11.9 -9.9°
